Weather in Pol-Uspen'ye

Russia / Oryol Oblast     52°39′39″N   37°47′14″E
temp.,
°C
wind,
m/s
gust,
m/s
humid.,
%
clouds,
%
prec.,
mm/h
press.,
hPa
HPBL,
m
15 may, sat
sat1500:00+15sse4996100 4.4 1010199
03:00+15sse349790 4.6 100974
06:00+15s379539 0.0 1009153
09:00+18ssw697688 0.0 1010532
12:00+20ssw686323 0.0 10111076
15:00+21ssw69563 0.0 10112027
18:00+19ssw610690 0.6 1011862
21:00+15ssw48870 0.6 1012159
16 may, sun
sun1600:00+13sw37900 0.0 1013116
03:00+12ssw34925 0.0 101456
06:00+13s248815 0.0 101482
09:00+17s467338 0.0 1015460
12:00+21s575611 0.0 10151606
15:00+22ssw4652100 0.0 10141812
18:00+22sw126333 0.0 1013299
21:00+17ne227362 0.0 101415
17 may, mon
mon1700:00+15ene467566 0.0 101392
03:00+14ene4119015 2.1 1013196
06:00+15ene5109395 0.0 1012232
09:00+20ese6107119 0.0 1011388
12:00+24se710530 0.0 1011786
15:00+26ese712535 0.0 10092049
18:00+23se714617 0.0 1009622
21:00+19ese6157413 0.0 1009384
18 may, tue
tue1800:00+17se6147429 0.0 1008333
03:00+15se4107880 0.0 1007196
06:00+15se4985100 0.0 1008192
09:00+20se697582 0.0 1007520
12:00+23sse710647 0.0 10071235
15:00+23sse71065100 0.3 10061677
18:00+19s611755 1.4 1006783
21:00+16sse411915 1.5 1006384
19 may, wed
wed1900:00+15sse41190100 0.0 1006239
03:00+14se4109399 0.0 1005207
06:00+14se51392100 0.4 1004426
09:00+14sse61195100 0.8 1004705
12:00+14s81391100 5.0 1004872
15:00+17s9127561 6.6 10031394
18:00+13wsw101390100 1.9 10051058
21:00+10sw7138999 2.4 1009644